DW9615 Home Hill AU current weather conditions

sailwx.info

Wind from 043

Air temperature 23.9° C
Dewpoint 21.0° C

Last reported at 2016-Dec-08 13:43 UTC.
Time now 2016-Dec-08 14:25 UTC

Location: S 19°40' E 147°25'.
View on Google Maps.

See reports from other nearby stations

  
Tides and Currents Weather Stations Pressure Air Temp Water Temp Dewpoint Dewpoint Depression Visibility Wind Speed Wind Dir Waves Ship Positions
date/time (UTC)wind fromknots sea level pressurealtimeterstation pressurevisibilityair tempwater tempwave heightnotes
2016-Dec-08 13:43 043 23.9
2016-Dec-08 13:28 042 23.9
2016-Dec-08 13:13 042 23.9
2016-Dec-08 12:58 042 23.9
2016-Dec-08 12:43 043 23.9
2016-Dec-08 12:28 042 24.4
2016-Dec-08 12:13 042 24.4
2016-Dec-08 11:58 043 24.4
2016-Dec-08 11:43 043 23.9
2016-Dec-08 11:27 043 24.4
2016-Dec-08 11:13 043 24.4
2016-Dec-08 10:58 043 24.4
2016-Dec-08 10:43 043 24.4
2016-Dec-08 10:28 042 25.0
2016-Dec-08 10:13 042 25.0
2016-Dec-08 09:57 042 25.0
2016-Dec-08 09:42 042 1 gusting 3 25.6
2016-Dec-08 09:27 042 1 gusting 4 25.6
2016-Dec-08 09:12 049 1 gusting 4 26.1
2016-Dec-08 08:57 044 1 gusting 4 26.1
2016-Dec-08 08:42 042 2 gusting 5 26.7
2016-Dec-08 08:27 044 2 gusting 7 26.7
2016-Dec-08 08:16 060 2 gusting 6 27.2
2016-Dec-08 07:57 035 3 gusting 10 27.8
2016-Dec-08 07:42 037 0 gusting 6 28.3
2016-Dec-08 07:27 337 1 gusting 9 28.9
2016-Dec-08 07:12 037 3 gusting 12 28.9
2016-Dec-08 06:57 034 3 gusting 8 29.4
2016-Dec-08 06:42 037 6 gusting 11 28.9
2016-Dec-08 06:27 039 5 gusting 12 29.4
2016-Dec-08 06:12 050 4 gusting 10 30.0
2016-Dec-08 05:57 073 3 gusting 12 29.4
2016-Dec-08 05:42 053 3 gusting 12 29.4
2016-Dec-08 05:27 060 4 gusting 9 30.6
2016-Dec-08 05:12 046 4 gusting 13 30.0
2016-Dec-08 04:57 049 4 gusting 10 30.0
2016-Dec-08 04:42 056 6 gusting 11 30.0
2016-Dec-08 04:27 113 5 gusting 12 30.0
2016-Dec-08 04:12 060 5 gusting 8 30.6
2016-Dec-08 03:57 058 5 gusting 10 30.0
2016-Dec-08 03:42 029 5 gusting 11 30.6
2016-Dec-08 03:27 066 4 gusting 10 30.6
2016-Dec-08 03:12 063 3 gusting 14 30.6
2016-Dec-08 02:56 048 1 gusting 13 30.6
2016-Dec-08 02:41 078 6 gusting 10 30.6
2016-Dec-08 02:26 026 3 gusting 9 30.6
2016-Dec-08 02:11 067 3 gusting 12 30.0
2016-Dec-08 01:56 046 4 gusting 8 30.0
2016-Dec-08 01:41 064 2 gusting 9 30.0
2016-Dec-08 01:26 131 3 gusting 6 31.1
2016-Dec-08 01:11 083 3 gusting 8 31.1
2016-Dec-08 00:56 047 6 gusting 10 30.6
2016-Dec-08 00:41 104 5 gusting 10 30.6
2016-Dec-08 00:26 062 5 gusting 11 30.0
2016-Dec-08 00:11 066 5 gusting 13 30.0
2016-Dec-07 23:56 060 3 gusting 9 30.0
2016-Dec-07 23:41 069 2 gusting 6 29.4
2016-Dec-07 23:26 052 6 gusting 11 29.4
2016-Dec-07 22:57 080 3 gusting 8 28.9
2016-Dec-07 22:42 042 5 gusting 9 28.9
2016-Dec-07 22:27 344 2 gusting 6 28.9
2016-Dec-07 22:12 028 2 gusting 6 27.8
2016-Dec-07 21:56 031 0 gusting 6 27.8
2016-Dec-07 21:41 031 4 gusting 9 27.8
2016-Dec-07 21:26 039 5 gusting 8 27.8
2016-Dec-07 21:11 057 3 gusting 9 27.2
2016-Dec-07 20:56 083 1 gusting 4 26.1
2016-Dec-07 20:41 034 25.0
2016-Dec-07 20:26 045 23.9
2016-Dec-07 20:11 045 23.9
2016-Dec-07 19:57 045 23.3
2016-Dec-07 19:42 045 23.3
2016-Dec-07 19:26 045 23.3
2016-Dec-07 19:11 045 23.3
2016-Dec-07 18:56 044 23.9
2016-Dec-07 18:41 044 24.4
2016-Dec-07 18:26 044 24.4
2016-Dec-07 18:11 044 0 gusting 2 23.9
2016-Dec-07 17:41 051 23.9
2016-Dec-07 17:26 050 23.9
2016-Dec-07 17:11 050 23.9
2016-Dec-07 16:56 050 24.4
2016-Dec-07 16:41 050 24.4
2016-Dec-07 16:26 050 0 gusting 1 24.4
2016-Dec-07 16:11 050 25.0
2016-Dec-07 15:56 050 0 gusting 2 25.0
2016-Dec-07 15:41 049 0 gusting 1 25.0
2016-Dec-07 15:28 049 0 gusting 3 25.0
2016-Dec-07 15:11 050 0 gusting 2 25.0
2016-Dec-07 14:56 050 0 gusting 2 25.0
2016-Dec-07 14:41 051 0 gusting 2 25.0
2016-Dec-07 14:26 052 0 gusting 1 25.0
2016-Dec-07 14:11 051 0 gusting 2 25.0
2016-Dec-07 13:56 049 1 gusting 3 25.6
2016-Dec-07 13:41 047 1 gusting 4 25.6
2016-Dec-07 13:26 047 0 gusting 3 25.6
2016-Dec-07 13:11 047 0 gusting 4 25.6
2016-Dec-07 12:56 043 0 gusting 2 25.6
2016-Dec-07 12:41 043 0 gusting 3 25.6
2016-Dec-07 12:26 042 25.6
2016-Dec-07 12:11 042 0 gusting 3 25.6
2016-Dec-07 11:56 041 0 gusting 4 25.6
2016-Dec-07 11:41 039 0 gusting 3 25.6
2016-Dec-07 11:26 039 0 gusting 4 26.1
2016-Dec-07 11:11 042 0 gusting 5 26.1
2016-Dec-07 10:56 046 1 gusting 4 26.1
2016-Dec-07 10:41 044 26.1
2016-Dec-07 10:25 044 1 gusting 4 26.1
2016-Dec-07 10:10 044 1 gusting 5 26.1
2016-Dec-07 09:58 040 2 gusting 6 26.1
2016-Dec-07 09:46 035 2 gusting 5 26.1
2016-Dec-07 09:33 031 2 gusting 7 26.7
2016-Dec-07 09:21 046 2 gusting 6 26.7
2016-Dec-07 09:06 052 1 gusting 6 27.2
2016-Dec-07 08:54 052 1 gusting 6 27.2
2016-Dec-07 08:37 050 2 gusting 6 27.8
2016-Dec-07 08:12 044 3 gusting 8 27.8
2016-Dec-07 07:55 059 2 gusting 7 28.3
2016-Dec-07 07:41 042 5 gusting 12 28.9
2016-Dec-07 07:25 050 5 gusting 11 28.9
2016-Dec-07 07:11 052 3 gusting 12 29.4
2016-Dec-07 06:55 044 3 gusting 9 30.0
2016-Dec-07 06:41 042 6 gusting 13 30.0
2016-Dec-07 06:26 017 2 gusting 9 30.6
2016-Dec-07 06:11 339 2 gusting 9 30.0
2016-Dec-07 05:56 028 6 gusting 11 30.6
2016-Dec-07 05:41 052 5 gusting 10 30.6
2016-Dec-07 05:26 055 4 gusting 10 30.6
2016-Dec-07 05:11 056 3 gusting 10 30.6
2016-Dec-07 04:56 017 4 gusting 13 30.6
2016-Dec-07 04:40 065 5 gusting 13 30.6
2016-Dec-07 04:26 049 5 gusting 13 30.6
2016-Dec-07 04:11 058 2 gusting 9 30.6
2016-Dec-07 03:56 052 5 gusting 12 30.6
2016-Dec-07 03:40 050 3 gusting 10 31.1
2016-Dec-07 03:25 331 4 gusting 9 30.6
2016-Dec-07 03:10 324 3 gusting 10 31.1
2016-Dec-07 02:55 061 6 gusting 12 31.1
2016-Dec-07 02:40 058 5 gusting 11 31.1
2016-Dec-07 02:25 110 5 gusting 10 31.1
2016-Dec-07 02:10 069 3 gusting 8 32.2
2016-Dec-07 01:55 326 3 gusting 6 31.7
2016-Dec-07 01:40 045 1 gusting 8 31.1
2016-Dec-07 01:25 045 2 gusting 6 31.1
2016-Dec-07 01:10 108 1 gusting 9 30.6
2016-Dec-07 00:55 064 3 gusting 6 31.1
2016-Dec-07 00:40 143 1 gusting 7 31.1
2016-Dec-07 00:25 052 5 gusting 8 30.6
2016-Dec-07 00:10 056 2 gusting 6 30.0
2016-Dec-06 23:55 044 2 gusting 7 30.0
2016-Dec-06 23:40 354 0 gusting 8 29.4
2016-Dec-06 23:25 050 2 gusting 9 28.9
2016-Dec-06 23:10 051 0 gusting 6 29.4
2016-Dec-06 22:55 048 1 gusting 7 28.3
2016-Dec-06 22:40 045 4 gusting 7 28.9
2016-Dec-06 22:25 045 2 gusting 8 28.3
2016-Dec-06 22:10 352 0 gusting 7 28.3
2016-Dec-06 21:54 021 2 gusting 8 27.8
2016-Dec-06 21:39 052 1 gusting 7 27.2
2016-Dec-06 21:24 055 0 gusting 4 27.2
2016-Dec-06 21:10 064 1 gusting 3 26.7
2016-Dec-06 20:54 119 25.0
2016-Dec-06 20:39 119 23.3
2016-Dec-06 20:24 054 22.2
2016-Dec-06 20:10 052 21.1
2016-Dec-06 19:54 049 20.6
2016-Dec-06 19:39 048 20.6
2016-Dec-06 19:24 058 20.6
2016-Dec-06 19:09 058 20.6
2016-Dec-06 18:54 058 20.6
2016-Dec-06 18:39 058 21.1
2016-Dec-06 18:24 058 21.7
2016-Dec-06 18:09 058 22.2
2016-Dec-06 17:54 058 22.8
2016-Dec-06 17:39 057 22.8
2016-Dec-06 17:24 056 22.8
2016-Dec-06 17:09 056 22.8
2016-Dec-06 16:54 056 0 gusting 1 22.8
2016-Dec-06 16:39 056 23.3
2016-Dec-06 16:24 056 0 gusting 2 23.9
2016-Dec-06 16:09 056 0 gusting 4 23.9
2016-Dec-06 15:54 035 0 gusting 2 23.9
2016-Dec-06 15:39 078 0 gusting 3 23.9
2016-Dec-06 15:24 051 2 gusting 6 23.3
2016-Dec-06 15:09 068 1 gusting 5 23.3
2016-Dec-06 14:53 091 1 gusting 6 23.9
2016-Dec-06 14:39 067 1 gusting 6 23.9
2016-Dec-06 14:24 073 2 gusting 6 23.9
2016-Dec-06 14:08 072 1 gusting 5 23.9